Location: Blazny
(46.0612°N, 84.4033°W)
Time: 10:29:11
(UTC-04:00)

ARIANE 6 FM1 Upper Stage - Pass Details

Date: 21 September 2024
Orbit: 564 x 594 km, 62.0° (Epoch: 03 October)

Event Time Altitude Azimuth Distance (km) Brightness Sun altitude
Exits shadow 03:28:58 12° 69° (ENE) 1,824 5.8 -36.7°
Drops below altitude 10° 03:29:24 10° 73° (ENE) 1,934 5.9 -36.6°
Sets 03:32:14 0° 92° (E) 2,835 6.7 -36.3°
